| time (UTC) | temp C | wind direction | speed KPH | gust KPH | rain 1hr cm | rain 24hr cm | rain mn cm | humidity % | barometer mb |
| 20260504080737 | 18 | 198 | 1.6 | 8.0 | 0.00 | 0.03 | 0.00 | 59 | 1012.0 |
| 20260504050327 | 19 | 178 | 0.0 | 4.8 | 0.00 | 0.03 | 0.00 | 54 | 1014.1 |
| 20260504045330 | 19 | 176 | 0.0 | 6.4 | 0.00 | 0.03 | 0.03 | 54 | 1014.2 |
| 20260504043201 | 18 | 159 | 0.0 | 1.6 | 0.00 | 0.03 | 0.03 | 54 | 1014.3 |
| 20260504042221 | 19 | 164 | 0.0 | 4.8 | 0.00 | 0.03 | 0.03 | 53 | 1014.3 |
| 20260504040045 | 19 | 164 | 0.0 | 1.6 | 0.00 | 0.03 | 0.03 | 51 | 1014.4 |
| 20260504035100 | 20 | 164 | 0.0 | 0.0 | 0.00 | 0.03 | 0.03 | 50 | 1014.4 |
| 20260504031732 | 20 | 164 | 0.0 | 0.0 | 0.00 | 0.03 | 0.03 | 46 | 1014.2 |
| 20260504030715 | 21 | 164 | 0.0 | 1.6 | 0.00 | 0.03 | 0.03 | 45 | 1014.2 |
| 20260504025649 | 21 | 164 | 0.0 | 1.6 | 0.00 | 0.03 | 0.03 | 44 | 1014.1 |
| 20260504024615 | 21 | 185 | 0.0 | 4.8 | 0.00 | 0.03 | 0.03 | 44 | 1014.0 |
| 20260504023636 | 22 | 173 | 0.0 | 8.0 | 0.00 | 0.03 | 0.03 | 42 | 1014.1 |
| 20260504021426 | 22 | 153 | 1.6 | 6.4 | 0.00 | 0.03 | 0.03 | 42 | 1013.9 |
| 20260504020402 | 22 | 132 | 0.0 | 6.4 | 0.00 | 0.03 | 0.03 | 41 | 1013.9 |
| 20260504015403 | 22 | 144 | 0.0 | 6.4 | 0.00 | 0.03 | 0.03 | 41 | 1013.9 |
| 20260504014327 | 22 | 148 | 0.0 | 3.2 | 0.00 | 0.03 | 0.03 | 39 | 1013.8 |
| 20260504013324 | 23 | 148 | 1.6 | 11.3 | 0.00 | 0.03 | 0.03 | 39 | 1013.7 |
| 20260504012343 | 23 | 161 | 1.6 | 11.3 | 0.00 | 0.03 | 0.03 | 38 | 1013.6 |
| 20260504011330 | 23 | 102 | 1.6 | 9.7 | 0.00 | 0.03 | 0.03 | 38 | 1013.6 |
| 20260504010336 | 23 | 200 | 1.6 | 9.7 | 0.00 | 0.03 | 0.03 | 38 | 1013.5 |
| 20260504005320 | 23 | 146 | 1.6 | 8.0 | 0.00 | 0.03 | 0.03 | 37 | 1013.4 |
| 20260504004322 | 24 | 151 | 0.0 | 9.7 | 0.00 | 0.03 | 0.03 | 37 | 1013.4 |
| 20260504003251 | 25 | 186 | 1.6 | 11.3 | 0.00 | 0.03 | 0.03 | 36 | 1013.5 |
| 20260504001143 | 26 | 227 | 1.6 | 14.5 | 0.00 | 0.03 | 0.03 | 35 | 1013.6 |
| 20260504000130 | 26 | 30 | 1.6 | 8.0 | 0.00 | 0.03 | 0.03 | 33 | 1013.5 |
| 20260503234005 | 26 | 237 | 1.6 | 19.3 | 0.00 | 0.03 | 0.03 | 35 | 1013.8 |
| 20260503231825 | 26 | 239 | 4.8 | 11.3 | 0.00 | 0.03 | 0.03 | 32 | 1014.0 |
| 20260503230750 | 26 | 178 | 3.2 | 12.9 | 0.00 | 0.03 | 0.03 | 34 | 1014.0 |
| 20260503225746 | 26 | 221 | 4.8 | 16.1 | 0.00 | 0.03 | 0.03 | 32 | 1014.0 |
| 20260503224803 | 27 | 80 | 4.8 | 16.1 | 0.00 | 0.03 | 0.03 | 34 | 1014.2 |
| 20260503223800 | 27 | 136 | 4.8 | 14.5 | 0.00 | 0.03 | 0.03 | 30 | 1014.1 |
| 20260503222741 | 27 | 254 | 4.8 | 14.5 | 0.00 | 0.03 | 0.03 | 30 | 1014.2 |
| 20260503221740 | 27 | 242 | 4.8 | 19.3 | 0.00 | 0.03 | 0.03 | 29 | 1014.3 |
| 20260503220754 | 27 | 228 | 6.4 | 24.1 | 0.00 | 0.03 | 0.03 | 31 | 1014.5 |
| 20260503215717 | 27 | 262 | 4.8 | 24.1 | 0.00 | 0.03 | 0.03 | 29 | 1014.6 |
| 20260503214648 | 27 | 213 | 3.2 | 16.1 | 0.00 | 0.03 | 0.03 | 30 | 1014.7 |
| 20260503213617 | 27 | 217 | 6.4 | 19.3 | 0.00 | 0.03 | 0.03 | 29 | 1014.8 |
| 20260503212542 | 27 | 260 | 6.4 | 19.3 | 0.00 | 0.03 | 0.03 | 32 | 1015.0 |
| 20260503211605 | 27 | 111 | 4.8 | 12.9 | 0.00 | 0.03 | 0.03 | 30 | 1015.2 |
| 20260503210622 | 27 | 250 | 4.8 | 12.9 | 0.00 | 0.03 | 0.03 | 31 | 1015.4 |
| 20260503205625 | 27 | 234 | 4.8 | 19.3 | 0.00 | 0.03 | 0.03 | 30 | 1015.6 |
| 20260503204557 | 27 | 184 | 4.8 | 19.3 | 0.00 | 0.03 | 0.03 | 33 | 1015.8 |
| 20260503202433 | 27 | 205 | 4.8 | 12.9 | 0.00 | 0.03 | 0.03 | 35 | 1016.2 |
| 20260503200327 | 27 | 109 | 6.4 | 16.1 | 0.00 | 0.03 | 0.03 | 36 | 1016.6 |
| 20260503195253 | 26 | 311 | 4.8 | 14.5 | 0.00 | 0.03 | 0.03 | 36 | 1016.7 |
| 20260503194258 | 27 | 281 | 4.8 | 12.9 | 0.00 | 0.03 | 0.03 | 33 | 1016.9 |
| 20260503192058 | 26 | 205 | 6.4 | 17.7 | 0.00 | 0.03 | 0.03 | 38 | 1017.4 |
| 20260503191112 | 26 | 232 | 6.4 | 24.1 | 0.00 | 0.03 | 0.03 | 33 | 1017.5 |
| 20260503190039 | 26 | 226 | 6.4 | 24.1 | 0.00 | 0.03 | 0.03 | 35 | 1017.6 |
| 20260503185045 | 26 | 155 | 4.8 | 16.1 | 0.00 | 0.03 | 0.03 | 38 | 1017.7 |
| 20260503184059 | 26 | 238 | 6.4 | 16.1 | 0.00 | 0.03 | 0.03 | 39 | 1017.9 |
| 20260503183059 | 26 | 298 | 4.8 | 14.5 | 0.00 | 0.03 | 0.03 | 38 | 1018.0 |
| 20260503175805 | 26 | 248 | 4.8 | 16.1 | 0.00 | 0.03 | 0.03 | 44 | 1018.7 |
| 20260503174749 | 26 | 238 | 4.8 | 19.3 | 0.00 | 0.03 | 0.03 | 40 | 1018.9 |
| 20260503173741 | 25 | 236 | 4.8 | 19.3 | 0.00 | 0.03 | 0.03 | 43 | 1019.0 |
| 20260503172752 | 25 | 226 | 8.0 | 16.1 | 0.00 | 0.03 | 0.03 | 42 | 1019.1 |
| 20260503170629 | 25 | 215 | 6.4 | 16.1 | 0.00 | 0.03 | 0.03 | 45 | 1019.4 |
| 20260503150457 | 21 | 253 | 4.8 | 16.1 | 0.00 | 0.03 | 0.03 | 55 | 1020.0 |
| 20260503140309 | 18 | 234 | 1.6 | 11.3 | 0.00 | 0.03 | 0.03 | 66 | 1020.0 |
| 20260503131111 | 12 | 0 | 0.0 | 0.0 | 0.00 | 0.03 | 0.03 | 88 | 1019.8 |
| 20260503110808 | 10 | 213 | 0.0 | 0.0 | 0.00 | 0.00 | 0.00 | 87 | 1018.9 |
| 20260503081557 | 11 | 213 | 0.0 | 0.0 | 0.00 | 0.00 | 0.00 | 85 | 1018.6 |